Location: Albany
(35.0000°S, 118.0000°E)
Time: 14:38:34
(UTC-04:00)

SJ-6B - Visible Passes

Search period start: 27 June 2016 00:00
Search period end: 07 July 2016 00:00
Orbit: 513 x 585 km, 97.8° (Epoch: 26 June)

Date Brightness Start Highest point End Pass type
(mag) Time Alt. Az. Time Alt. Az. Time Alt. Az.
27 Jun 5.3 07:25:17 14° N 07:25:17 14° N 07:25:56 10° N visible
27 Jun 4.9 18:00:10 10° NE 18:03:22 26° ESE 18:06:34 10° SSE visible
28 Jun 5.2 07:20:38 15° N 07:20:38 15° N 07:21:23 10° N visible
28 Jun 5.1 17:55:49 10° NE 17:58:50 23° ESE 18:01:53 10° SSE visible
29 Jun 5.1 07:15:59 16° N 07:15:59 16° N 07:16:48 10° N visible
29 Jun 5.3 17:51:29 10° ENE 17:54:19 20° ESE 17:57:09 10° SSE visible
30 Jun 5.1 07:11:20 16° N 07:11:20 16° N 07:12:12 10° N visible
30 Jun 5.5 17:47:12 10° ENE 17:49:48 18° ESE 17:52:24 10° SSE visible
01 Jul 5.0 07:06:41 16° NNE 07:06:41 16° NNE 07:07:35 10° N visible
01 Jul 5.6 17:42:58 10° ENE 17:45:16 16° ESE 17:47:36 10° SSE visible
02 Jul 5.0 07:02:02 16° NNE 07:02:02 16° NNE 07:02:57 10° NNE visible
02 Jul 5.7 17:38:47 10° E 17:40:46 14° ESE 17:42:44 10° SE visible
03 Jul 5.0 06:57:23 15° NNE 06:57:23 15° NNE 06:58:17 10° NNE visible
03 Jul 5.8 17:34:43 10° E 17:36:14 12° ESE 17:37:46 10° SE visible
04 Jul 5.0 06:52:44 15° NNE 06:52:44 15° NNE 06:53:36 10° NNE visible
04 Jul 5.9 17:30:54 10° E 17:31:44 11° ESE 17:32:32 10° SE visible
05 Jul 5.0 06:48:04 14° NNE 06:48:04 14° NNE 06:48:53 10° NNE visible
06 Jul 5.0 06:43:24 14° NE 06:43:24 14° NE 06:44:09 10° NNE visible
